Date,TemperatureHighF,TemperatureAvgF,TemperatureLowF,DewpointHighF,DewpointAvgF,DewpointLowF,HumidityHigh,HumidityAvg,HumidityLow,PressureMaxIn,PressureMinIn,WindSpeedMaxMPH,WindSpeedAvgMPH,GustSpeedMaxMPH,PrecipitationSumIn
2013-1-1,33,24,12,-100,-100,-100,0,0,100,0.00,40.00,0,-999,0,0.00
2013-1-2,22,13,2,-100,-100,-100,0,0,100,0.00,40.00,0,-999,0,0.00
2013-1-3,19,10,1,-100,-100,-100,0,0,100,0.00,40.00,0,-999,0,0.00
2013-1-4,35,27,14,-100,-100,-100,0,0,100,0.00,40.00,0,-999,0,0.00
2013-1-5,34,29,17,-100,-100,-100,0,0,100,0.00,40.00,0,-999,0,0.00
2013-1-6,34,25,16,-100,-100,-100,0,0,100,0.00,40.00,0,-999,0,0.00
2013-1-7,34,26,12,-100,-100,-100,0,0,100,0.00,40.00,0,-999,0,0.00
2013-1-8,41,28,11,-100,-100,-100,0,0,100,0.00,40.00,0,-999,0,0.00
2013-1-9,41,29,20,-100,-100,-100,0,0,100,0.00,40.00,0,-999,0,0.00
2013-1-10,41,38,32,-100,-100,-100,0,0,100,0.00,40.00,0,-999,0,0.00
2013-1-11,35,30,23,-100,-100,-100,0,0,100,0.00,40.00,0,-999,0,0.08
2013-1-12,36,34,33,-100,-100,-100,0,0,100,0.00,40.00,0,-999,0,0.13
2013-1-13,37,35,34,-100,-100,-100,0,0,100,0.00,40.00,0,-999,0,0.01
2013-1-14,56,42,35,-100,-100,-100,0,0,100,0.00,40.00,0,-999,0,0.00
2013-1-15,38,33,29,-100,-100,-100,0,0,100,0.00,40.00,0,-999,0,0.00
2013-1-16,31,29,27,-100,-100,-100,0,0,100,0.00,40.00,0,-999,0,0.25
2013-1-17,39,29,19,-100,-100,-100,0,0,100,0.00,40.00,0,-999,0,0.01
2013-1-18,19,14,7,-100,-100,-100,0,0,100,0.00,40.00,0,-999,0,0.00
2013-1-19,32,24,19,-100,-100,-100,0,0,100,0.00,40.00,0,-999,0,0.00
2013-1-20,47,33,24,-100,-100,-100,0,0,100,0.00,40.00,0,-999,0,0.00
2013-1-21,26,20,15,-100,-100,-100,0,0,100,0.00,40.00,0,-999,0,0.00
2013-1-22,23,16,6,-100,-100,-100,0,0,100,0.00,40.00,0,-999,0,0.00
2013-1-23,5,1,-3,-100,-100,-100,0,0,100,0.00,40.00,0,-999,0,0.00
2013-1-24,11,3,-5,-100,-100,-100,0,0,100,0.00,40.00,0,-999,0,0.00
2013-1-25,17,10,2,-100,-100,-100,0,0,100,0.00,40.00,0,-999,0,0.00
2013-1-26,19,14,9,-100,-100,-100,0,0,100,0.00,40.00,0,-999,0,0.00
2013-1-27,22,16,10,-100,-100,-100,0,0,100,0.00,40.00,0,-999,0,0.00
2013-1-28,20,18,16,-100,-100,-100,0,0,100,0.00,40.00,0,-999,0,0.13
2013-1-29,31,23,13,-100,-100,-100,0,0,100,0.00,40.00,0,-999,0,0.14
2013-1-30,38,34,31,-100,-100,-100,0,0,100,0.00,40.00,0,-999,0,0.23
2013-1-31,58,38,29,-100,-100,-100,0,0,100,0.00,40.00,0,-999,0,0.50
2013-2-1,27,23,16,-100,-100,-100,0,0,100,0.00,40.00,0,-999,0,0.02
2013-2-2,24,18,12,-100,-100,-100,0,0,100,0.00,40.00,0,-999,0,0.00
2013-2-3,27,22,16,-100,-100,-100,0,0,100,0.00,40.00,0,-999,0,0.00
2013-2-4,26,22,17,-100,-100,-100,0,0,100,0.00,40.00,0,-999,0,0.00
2013-2-5,24,17,9,-100,-100,-100,0,0,100,0.00,40.00,0,-999,0,0.00
2013-2-6,34,23,17,-100,-100,-100,0,0,100,0.00,40.00,0,-999,0,0.00
2013-2-7,21,16,10,-100,-100,-100,0,0,100,0.00,40.00,0,-999,0,0.00
2013-2-8,17,14,11,-100,-100,-100,0,0,100,0.00,40.00,0,-999,0,0.02
2013-2-9,19,16,12,-100,-100,-100,0,0,100,0.00,40.00,0,-999,0,0.29
2013-2-10,32,20,8,-100,-100,-100,0,0,100,0.00,40.00,0,-999,0,0.01
2013-2-11,37,19,6,-100,-100,-100,0,0,100,0.00,40.00,0,-999,0,0.30
2013-2-12,42,37,34,-100,-100,-100,0,0,100,0.00,40.00,0,-999,0,0.01
2013-2-13,39,33,24,-100,-100,-100,0,0,100,0.00,40.00,0,-999,0,0.00
2013-2-14,38,28,20,-100,-100,-100,0,0,100,0.00,40.00,0,-999,0,0.00
2013-2-15,48,30,18,-100,-100,-100,0,0,100,0.00,40.00,0,-999,0,0.00
2013-2-16,36,33,26,-100,-100,-100,0,0,100,0.00,40.00,0,-999,0,0.00
2013-2-17,25,19,14,-100,-100,-100,0,0,100,0.00,40.00,0,-999,0,0.00
2013-2-18,26,18,9,-100,-100,-100,0,0,100,0.00,40.00,0,-999,0,0.00
2013-2-19,39,28,18,-100,-100,-100,0,0,100,0.00,40.00,0,-999,0,0.07
2013-2-20,36,30,23,-100,-100,-100,0,0,100,0.00,40.00,0,-999,0,0.15
2013-2-21,26,22,18,-100,-100,-100,0,0,100,0.00,40.00,0,-999,0,0.00
2013-2-22,37,28,16,-100,-100,-100,0,0,100,0.00,40.00,0,-999,0,0.00
2013-2-23,34,31,27,-100,-100,-100,0,0,100,0.00,40.00,0,-999,0,0.14
2013-2-24,33,31,29,-100,-100,-100,0,0,100,0.00,40.00,0,-999,0,0.73
2013-2-25,38,31,21,-100,-100,-100,0,0,100,0.00,40.00,0,-999,0,0.18
2013-2-26,38,34,31,-100,-100,-100,0,0,100,0.00,40.00,0,-999,0,0.00
2013-2-27,34,32,31,-100,-100,-100,0,0,100,0.00,40.00,0,-999,0,0.36
2013-2-28,41,34,31,-100,-100,-100,0,0,100,0.00,40.00,0,-999,0,0.12
2013-3-1,37,34,30,-100,-100,-100,0,0,100,0.00,40.00,0,-999,0,0.01
2013-3-2,42,35,30,-100,-100,-100,0,0,100,0.00,40.00,0,-999,0,0.00
2013-3-3,42,33,29,-100,-100,-100,0,0,100,0.00,40.00,0,-999,0,0.01
2013-3-4,34,29,27,-100,-100,-100,0,0,100,0.00,40.00,0,-999,0,0.01
2013-3-5,44,34,27,-100,-100,-100,0,0,100,0.00,40.00,0,-999,0,0.00
2013-3-6,37,34,32,-100,-100,-100,0,0,100,0.00,40.00,0,-999,0,0.00
2013-3-7,33,32,30,-100,-100,-100,0,0,100,0.00,40.00,0,-999,0,0.00
2013-3-8,44,35,29,-100,-100,-100,0,0,100,0.00,40.00,0,-999,0,0.00
2013-3-9,56,36,23,-100,-100,-100,0,0,100,0.00,40.00,0,-999,0,0.00
2013-3-10,47,33,22,-100,-100,-100,0,0,100,0.00,40.00,0,-999,0,0.00
2013-3-11,47,36,29,-100,-100,-100,0,0,100,0.00,40.00,0,-999,0,0.00
2013-3-12,47,42,34,-100,-100,-100,0,0,100,0.00,40.00,0,-999,0,0.52
2013-3-13,47,40,31,-100,-100,-100,0,0,100,0.00,40.00,0,-999,0,0.29
2013-3-14,35,29,19,-100,-100,-100,0,0,100,0.00,40.00,0,-999,0,0.00
2013-3-15,36,25,16,-100,-100,-100,0,0,100,0.00,40.00,0,-999,0,0.05
2013-3-16,31,27,22,-100,-100,-100,0,0,100,0.00,40.00,0,-999,0,0.05
2013-3-17,30,23,16,-100,-100,-100,0,0,100,0.00,40.00,0,-999,0,0.00
2013-3-18,34,24,10,-100,-100,-100,0,0,100,0.00,40.00,0,-999,0,0.00
2013-3-19,31,27,23,-100,-100,-100,0,0,100,0.00,40.00,0,-999,0,0.53
2013-3-20,35,28,23,-100,-100,-100,0,0,100,0.00,40.00,0,-999,0,0.16
2013-3-21,38,29,22,-100,-100,-100,0,0,100,0.00,40.00,0,-999,0,0.01
2013-3-22,38,31,23,-100,-100,-100,0,0,100,0.00,40.00,0,-999,0,0.00
2013-3-23,39,32,26,-100,-100,-100,0,0,100,0.00,40.00,0,-999,0,0.00
2013-3-24,44,36,29,-100,-100,-100,0,0,100,0.00,40.00,0,-999,0,0.00
2013-3-25,41,32,21,-100,-100,-100,0,0,100,0.00,40.00,0,-999,0,0.00
2013-3-26,47,38,31,-100,-100,-100,0,0,100,0.00,40.00,0,-999,0,0.00
2013-3-27,48,39,33,-100,-100,-100,0,0,100,0.00,40.00,0,-999,0,0.00
2013-3-28,44,39,34,-100,-100,-100,0,0,100,0.00,40.00,0,-999,0,0.00
2013-3-29,49,43,36,-100,-100,-100,0,0,100,0.00,40.00,0,-999,0,0.00
2013-3-30,50,41,32,-100,-100,-100,0,0,100,0.00,40.00,0,-999,0,0.00
2013-3-31,56,39,25,-100,-100,-100,0,0,100,0.00,40.00,0,-999,0,0.01
2013-4-1,54,41,33,-100,-100,-100,0,0,100,0.00,40.00,0,-999,0,0.42
2013-4-2,35,31,27,-100,-100,-100,0,0,100,0.00,40.00,0,-999,0,0.01
2013-4-3,43,33,26,-100,-100,-100,0,0,100,0.00,40.00,0,-999,0,0.00
2013-4-4,54,40,31,-100,-100,-100,0,0,100,0.00,40.00,0,-999,0,0.00
2013-4-5,54,43,35,-100,-100,-100,0,0,100,0.00,40.00,0,-999,0,0.00
2013-4-6,41,33,25,-100,-100,-100,0,0,100,0.00,40.00,0,-999,0,0.00
2013-4-7,55,40,26,-100,-100,-100,0,0,100,0.00,40.00,0,-999,0,0.00
2013-4-8,59,48,41,-100,-100,-100,0,0,100,0.00,40.00,0,-999,0,0.00
2013-4-9,54,44,40,-100,-100,-100,0,0,100,0.00,40.00,0,-999,0,0.25
2013-4-10,53,45,40,-100,-100,-100,0,0,100,0.00,40.00,0,-999,0,0.65
2013-4-11,47,43,39,-100,-100,-100,0,0,100,0.00,40.00,0,-999,0,0.35
2013-4-12,40,34,31,-100,-100,-100,0,0,100,0.00,40.00,0,-999,0,0.36
2013-4-13,49,39,33,-100,-100,-100,0,0,100,0.00,40.00,0,-999,0,0.06
2013-4-14,49,42,36,-100,-100,-100,0,0,100,0.00,40.00,0,-999,0,0.01
2013-4-15,54,42,30,-100,-100,-100,0,0,100,0.00,40.00,0,-999,0,0.00
2013-4-16,64,48,32,-100,-100,-100,0,0,100,0.00,40.00,0,-999,0,0.03
2013-4-17,59,52,40,-100,-100,-100,0,0,100,0.00,40.00,0,-999,0,0.01
2013-4-18,56,45,31,-100,-100,-100,0,0,100,0.00,40.00,0,-999,0,0.00
2013-4-19,74,60,48,-100,-100,-100,0,0,100,0.00,40.00,0,-999,0,0.02
2013-4-20,65,50,41,-100,-100,-100,0,0,100,0.00,40.00,0,-999,0,0.41
2013-4-21,51,40,33,-100,-100,-100,0,0,100,0.00,40.00,0,-999,0,0.01
2013-4-22,51,40,30,-100,-100,-100,0,0,100,0.00,40.00,0,-999,0,0.00
2013-4-23,40,36,31,-100,-100,-100,0,0,100,0.00,40.00,0,-999,0,0.00
2013-4-24,74,54,40,-100,-100,-100,0,0,100,0.00,40.00,0,-999,0,0.00
2013-4-25,63,53,40,-100,-100,-100,0,0,100,0.00,40.00,0,-999,0,0.00
2013-4-26,57,46,33,-100,-100,-100,0,0,100,0.00,40.00,0,-999,0,0.00
2013-4-27,63,49,34,-100,-100,-100,0,0,100,0.00,40.00,0,-999,0,0.00
2013-4-28,67,51,36,-100,-100,-100,0,0,100,0.00,40.00,0,-999,0,0.00
2013-4-29,68,54,39,-100,-100,-100,0,0,100,0.00,40.00,0,-999,0,0.00
2013-4-30,70,58,45,-100,-100,-100,0,0,100,0.00,40.00,0,-999,0,0.00
2013-5-1,74,56,38,-100,-100,-100,0,0,100,0.00,40.00,0,-999,0,0.00
2013-5-2,74,54,42,-100,-100,-100,0,0,100,0.00,40.00,0,-999,0,0.00
2013-5-3,65,51,36,-100,-100,-100,0,0,100,0.00,40.00,0,-999,0,0.00
2013-5-4,69,53,40,-100,-100,-100,0,0,100,0.00,40.00,0,-999,0,0.00
2013-5-5,69,51,34,-100,-100,-100,0,0,100,0.00,40.00,0,-999,0,0.00
2013-5-6,73,54,36,-100,-100,-100,0,0,100,0.00,40.00,0,-999,0,0.00
2013-5-7,80,61,43,-100,-100,-100,0,0,100,0.00,40.00,0,-999,0,0.00
2013-5-8,72,62,51,-100,-100,-100,0,0,100,0.00,40.00,0,-999,0,0.10
2013-5-9,62,58,54,-100,-100,-100,0,0,100,0.00,40.00,0,-999,0,0.30
2013-5-10,73,63,55,-100,-100,-100,0,0,100,0.00,40.00,0,-999,0,0.03
2013-5-11,67,61,56,-100,-100,-100,0,0,100,0.00,40.00,0,-999,0,0.33
2013-5-12,67,58,48,-100,-100,-100,0,0,100,0.00,40.00,0,-999,0,0.07
2013-5-13,53,47,41,-100,-100,-100,0,0,100,0.00,40.00,0,-999,0,0.00
2013-5-14,58,48,38,-100,-100,-100,0,0,100,0.00,40.00,0,-999,0,0.00
2013-5-15,65,48,32,-100,-100,-100,0,0,100,0.00,40.00,0,-999,0,0.12
2013-5-16,78,61,45,-100,-100,-100,0,0,100,0.00,40.00,0,-999,0,0.02
2013-5-17,65,56,48,-100,-100,-100,0,0,100,0.00,40.00,0,-999,0,0.00
2013-5-18,69,57,43,-100,-100,-100,0,0,100,0.00,40.00,0,-999,0,0.00
2013-5-19,61,54,49,-100,-100,-100,0,0,100,0.00,40.00,0,-999,0,0.14
2013-5-20,72,60,52,-100,-100,-100,0,0,100,0.00,40.00,0,-999,0,0.36
2013-5-21,61,56,51,-100,-100,-100,0,0,100,0.00,40.00,0,-999,0,0.34
2013-5-22,59,54,50,-100,-100,-100,0,0,100,0.00,40.00,0,-999,0,0.86
2013-5-23,69,58,51,-100,-100,-100,0,0,100,0.00,40.00,0,-999,0,0.40
2013-5-24,68,61,48,-100,-100,-100,0,0,100,0.00,40.00,0,-999,0,0.41
2013-5-25,50,46,37,-100,-100,-100,0,0,100,0.00,40.00,0,-999,0,0.95
2013-5-26,54,46,36,-100,-100,-100,0,0,100,0.00,40.00,0,-999,0,0.34
2013-5-27,66,54,42,-100,-100,-100,0,0,100,0.00,40.00,0,-999,0,0.01
2013-5-28,70,55,39,-100,-100,-100,0,0,100,0.00,40.00,0,-999,0,0.00
2013-5-29,57,53,50,-100,-100,-100,0,0,100,0.00,40.00,0,-999,0,0.33
2013-5-30,82,69,54,-100,-100,-100,0,0,100,0.00,40.00,0,-999,0,0.21
2013-5-31,92,75,59,-100,-100,-100,0,0,100,0.00,40.00,0,-999,0,0.01
2013-6-1,93,78,62,-100,-100,-100,0,0,100,0.00,40.00,0,-999,0,0.00
2013-6-2,91,76,66,-100,-100,-100,0,0,100,0.00,40.00,0,-999,0,0.52
2013-6-3,79,69,61,-100,-100,-100,0,0,100,0.00,40.00,0,-999,0,0.26
2013-6-4,64,59,50,-100,-100,-100,0,0,100,0.00,40.00,0,-999,0,0.00
2013-6-5,69,60,49,-100,-100,-100,0,0,100,0.00,40.00,0,-999,0,0.00
2013-6-6,71,62,52,-100,-100,-100,0,0,100,0.00,40.00,0,-999,0,0.00
2013-6-7,58,54,50,-100,-100,-100,0,0,100,0.00,40.00,0,-999,0,0.81
2013-6-8,71,61,52,-100,-100,-100,0,0,100,0.00,40.00,0,-999,0,1.29
2013-6-9,74,65,56,-100,-100,-100,0,0,100,0.00,40.00,0,-999,0,0.01
2013-6-10,70,61,52,-100,-100,-100,0,0,100,0.00,40.00,0,-999,0,0.10
2013-6-11,59,56,54,-100,-100,-100,0,0,100,0.00,40.00,0,-999,0,1.04
2013-6-12,64,60,54,-100,-100,-100,0,0,100,0.00,40.00,0,-999,0,0.19
2013-6-13,68,60,53,-100,-100,-100,0,0,100,0.00,40.00,0,-999,0,0.06
2013-6-14,76,62,54,-100,-100,-100,0,0,100,0.00,40.00,0,-999,0,0.06
2013-6-15,73,65,56,-100,-100,-100,0,0,100,0.00,40.00,0,-999,0,0.00
2013-6-16,74,61,50,-100,-100,-100,0,0,100,0.00,40.00,0,-999,0,0.00
2013-6-17,82,68,57,-100,-100,-100,0,0,100,0.00,40.00,0,-999,0,0.01
2013-6-18,65,60,54,-100,-100,-100,0,0,100,0.00,40.00,0,-999,0,0.08
2013-6-19,72,62,49,-100,-100,-100,0,0,100,0.00,40.00,0,-999,0,0.01
2013-6-20,77,61,48,-100,-100,-100,0,0,100,0.00,40.00,0,-999,0,0.00
2013-6-22,78,72,67,-100,-100,-100,0,0,100,0.00,40.00,0,-999,0,0.02
2013-6-23,79,69,63,-100,-100,-100,0,0,100,0.00,40.00,0,-999,0,1.58
2013-6-24,92,75,66,-100,-100,-100,0,0,100,0.00,40.00,0,-999,0,1.17
2013-6-25,89,76,68,-100,-100,-100,0,0,100,0.00,40.00,0,-999,0,0.10
2013-6-26,76,70,64,-100,-100,-100,0,0,100,0.00,40.00,0,-999,0,0.34
2013-6-27,70,65,61,-100,-100,-100,0,0,100,0.00,40.00,0,-999,0,0.01
2013-6-28,65,61,57,-100,-100,-100,0,0,100,0.00,40.00,0,-999,0,1.35
2013-6-29,82,70,63,-100,-100,-100,0,0,100,0.00,40.00,0,-999,0,0.79
2013-6-30,81,73,66,-100,-100,-100,0,0,100,0.00,40.00,0,-999,0,1.08
2013-7-1,76,70,66,-100,-100,-100,0,0,100,0.00,40.00,0,-999,0,1.01
2013-7-2,74,65,61,-100,-100,-100,0,0,100,0.00,40.00,0,-999,0,0.49
2013-7-3,86,72,61,-100,-100,-100,0,0,100,0.00,40.00,0,-999,0,0.37
2013-7-4,90,80,70,-100,-100,-100,0,0,100,0.00,40.00,0,-999,0,0.02
2013-7-5,92,82,73,-100,-100,-100,0,0,100,0.00,40.00,0,-999,0,0.01
2013-7-6,87,79,70,-100,-100,-100,0,0,100,0.00,40.00,0,-999,0,0.00
2013-7-7,86,76,70,-100,-100,-100,0,0,100,0.00,40.00,0,-999,0,0.15
2013-7-8,79,72,65,-100,-100,-100,0,0,100,0.00,40.00,0,-999,0,0.89
2013-7-9,74,69,65,-100,-100,-100,0,0,100,0.00,40.00,0,-999,0,0.24
2013-7-10,73,69,66,-100,-100,-100,0,0,100,0.00,40.00,0,-999,0,0.36
2013-7-11,81,72,67,-100,-100,-100,0,0,100,0.00,40.00,0,-999,0,0.19
2013-7-12,78,69,62,-100,-100,-100,0,0,100,0.00,40.00,0,-999,0,0.01
2013-7-13,78,70,61,-100,-100,-100,0,0,100,0.00,40.00,0,-999,0,0.00
2013-7-14,85,76,68,-100,-100,-100,0,0,100,0.00,40.00,0,-999,0,0.00
2013-7-15,91,78,68,-100,-100,-100,0,0,100,0.00,40.00,0,-999,0,0.00
2013-7-16,90,79,68,-100,-100,-100,0,0,100,0.00,40.00,0,-999,0,0.00
2013-7-17,93,79,68,-100,-100,-100,0,0,100,0.00,40.00,0,-999,0,0.05
2013-7-18,87,77,71,-100,-100,-100,0,0,100,0.00,40.00,0,-999,0,0.23
2013-7-19,93,81,69,-100,-100,-100,0,0,100,0.00,40.00,0,-999,0,0.19
2013-7-20,87,78,70,-100,-100,-100,0,0,100,0.00,40.00,0,-999,0,0.05
2013-7-21,77,71,64,-100,-100,-100,0,0,100,0.00,40.00,0,-999,0,0.00
2013-7-22,73,67,63,-100,-100,-100,0,0,100,0.00,40.00,0,-999,0,0.40
2013-7-23,71,65,62,-100,-100,-100,0,0,100,0.00,40.00,0,-999,0,2.86
2013-7-24,80,69,57,-100,-100,-100,0,0,100,0.00,40.00,0,-999,0,0.01
2013-7-25,70,61,51,-100,-100,-100,0,0,100,0.00,40.00,0,-999,0,0.00
2013-7-26,69,65,61,-100,-100,-100,0,0,100,0.00,40.00,0,-999,0,0.51
2013-7-27,83,72,63,-100,-100,-100,0,0,100,0.00,40.00,0,-999,0,0.02
2013-7-28,78,69,61,-100,-100,-100,0,0,100,0.00,40.00,0,-999,0,0.01
2013-7-29,81,68,63,-100,-100,-100,0,0,100,0.00,40.00,0,-999,0,1.01
2013-7-30,78,68,60,-100,-100,-100,0,0,100,0.00,40.00,0,-999,0,0.58
2013-7-31,80,68,57,-100,-100,-100,0,0,100,0.00,40.00,0,-999,0,0.00
2013-8-1,79,67,59,-100,-100,-100,0,0,100,0.00,40.00,0,-999,0,0.16
2013-8-2,81,69,63,-100,-100,-100,0,0,100,0.00,40.00,0,-999,0,0.40
2013-8-3,79,68,60,-100,-100,-100,0,0,100,0.00,40.00,0,-999,0,0.01
2013-8-4,75,66,59,-100,-100,-100,0,0,100,0.00,40.00,0,-999,0,0.01
2013-8-5,72,63,54,-100,-100,-100,0,0,100,0.00,40.00,0,-999,0,0.00
2013-8-6,73,62,49,-100,-100,-100,0,0,100,0.00,40.00,0,-999,0,0.00
2013-8-7,78,65,53,-100,-100,-100,0,0,100,0.00,40.00,0,-999,0,0.00
2013-8-8,82,69,62,-100,-100,-100,0,0,100,0.00,40.00,0,-999,0,0.02
2013-8-9,73,72,69,-100,-100,-100,0,0,100,0.00,40.00,0,-999,0,1.09
2013-8-10,78,70,58,-100,-100,-100,0,0,100,0.00,40.00,0,-999,0,0.01
2013-8-11,77,65,55,-100,-100,-100,0,0,100,0.00,40.00,0,-999,0,0.00
2013-8-12,78,66,57,-100,-100,-100,0,0,100,0.00,40.00,0,-999,0,0.00
2013-8-13,70,64,58,-100,-100,-100,0,0,100,0.00,40.00,0,-999,0,0.79
2013-8-14,72,65,59,-100,-100,-100,0,0,100,0.00,40.00,0,-999,0,0.06
2013-8-15,75,63,54,-100,-100,-100,0,0,100,0.00,40.00,0,-999,0,0.00
2013-8-16,78,65,54,-100,-100,-100,0,0,100,0.00,40.00,0,-999,0,0.00
2013-8-17,78,66,56,-100,-100,-100,0,0,100,0.00,40.00,0,-999,0,0.00
2013-8-18,78,66,56,-100,-100,-100,0,0,100,0.00,40.00,0,-999,0,0.00
2013-8-19,82,70,59,-100,-100,-100,0,0,100,0.00,40.00,0,-999,0,0.00
2013-8-20,82,72,65,-100,-100,-100,0,0,100,0.00,40.00,0,-999,0,0.00
2013-8-21,87,73,61,-100,-100,-100,0,0,100,0.00,40.00,0,-999,0,0.00
2013-8-22,86,76,64,-100,-100,-100,0,0,100,0.00,40.00,0,-999,0,0.00
2013-8-23,78,70,57,-100,-100,-100,0,0,100,0.00,40.00,0,-999,0,0.00
2013-8-24,75,62,50,-100,-100,-100,0,0,100,0.00,40.00,0,-999,0,0.00
2013-8-25,80,65,51,-100,-100,-100,0,0,100,0.00,40.00,0,-999,0,0.00
2013-8-26,77,69,60,-100,-100,-100,0,0,100,0.00,40.00,0,-999,0,0.19
2013-8-27,81,72,64,-100,-100,-100,0,0,100,0.00,40.00,0,-999,0,0.04
2013-8-28,82,75,65,-100,-100,-100,0,0,100,0.00,40.00,0,-999,0,0.76
2013-8-29,66,64,62,-100,-100,-100,0,0,100,0.00,40.00,0,-999,0,0.81
2013-8-30,84,70,60,-100,-100,-100,0,0,100,0.00,40.00,0,-999,0,0.00
2013-8-31,79,73,67,-100,-100,-100,0,0,100,0.00,40.00,0,-999,0,0.02
2013-9-1,81,75,71,-100,-100,-100,0,0,100,0.00,40.00,0,-999,0,0.01
2013-9-2,72,70,68,-100,-100,-100,0,0,100,0.00,40.00,0,-999,0,0.89
2013-9-3,76,69,64,-100,-100,-100,0,0,100,0.00,40.00,0,-999,0,0.19
2013-9-4,78,68,60,-100,-100,-100,0,0,100,0.00,40.00,0,-999,0,0.00
2013-9-5,68,61,51,-100,-100,-100,0,0,100,0.00,40.00,0,-999,0,0.01
2013-9-6,68,55,43,-100,-100,-100,0,0,100,0.00,40.00,0,-999,0,0.01
2013-9-7,75,64,53,-100,-100,-100,0,0,100,0.00,40.00,0,-999,0,0.00
2013-9-8,66,60,50,-100,-100,-100,0,0,100,0.00,40.00,0,-999,0,0.00
2013-9-9,68,56,44,-100,-100,-100,0,0,100,0.00,40.00,0,-999,0,0.00
2013-9-10,65,59,52,-100,-100,-100,0,0,100,0.00,40.00,0,-999,0,0.09
2013-9-11,92,74,63,-100,-100,-100,0,0,100,0.00,40.00,0,-999,0,0.55
2013-9-12,74,69,66,-100,-100,-100,0,0,100,0.00,40.00,0,-999,0,1.14
2013-9-13,72,64,56,-100,-100,-100,0,0,100,0.00,40.00,0,-999,0,0.72
2013-9-14,66,58,53,-100,-100,-100,0,0,100,0.00,40.00,0,-999,0,0.01
2013-9-15,69,56,47,-100,-100,-100,0,0,100,0.00,40.00,0,-999,0,0.00
2013-9-16,64,56,46,-100,-100,-100,0,0,100,0.00,40.00,0,-999,0,0.03
2013-9-17,65,50,38,-100,-100,-100,0,0,100,0.00,40.00,0,-999,0,0.01
2013-9-18,51,46,44,-100,-100,-100,0,0,100,0.00,40.00,0,-999,0,0.00
2013-9-19,75,61,51,-100,-100,-100,0,0,100,0.00,40.00,0,-999,0,0.00
2013-9-20,76,60,49,-100,-100,-100,0,0,100,0.00,40.00,0,-999,0,0.00
2013-9-21,73,62,50,-100,-100,-100,0,0,100,0.00,40.00,0,-999,0,0.00
2013-9-22,70,63,51,-100,-100,-100,0,0,100,0.00,40.00,0,-999,0,0.54
2013-9-23,57,50,46,-100,-100,-100,0,0,100,0.00,40.00,0,-999,0,0.10
2013-9-24,62,52,45,-100,-100,-100,0,0,100,0.00,40.00,0,-999,0,0.00
2013-9-25,61,54,47,-100,-100,-100,0,0,100,0.00,40.00,0,-999,0,0.00
2013-9-26,65,54,42,-100,-100,-100,0,0,100,0.00,40.00,0,-999,0,0.00
2013-9-27,66,58,51,-100,-100,-100,0,0,100,0.00,40.00,0,-999,0,0.00
2013-9-28,73,57,46,-100,-100,-100,0,0,100,0.00,40.00,0,-999,0,0.00
2013-9-29,68,54,45,-100,-100,-100,0,0,100,0.00,40.00,0,-999,0,0.00
2013-9-30,69,52,43,-100,-100,-100,0,0,100,0.00,40.00,0,-999,0,0.00
2013-10-1,61,57,49,-100,-100,-100,0,0,100,0.00,40.00,0,-999,0,0.00
2013-10-2,76,65,53,-100,-100,-100,0,0,100,0.00,40.00,0,-999,0,0.00
2013-10-3,74,62,52,-100,-100,-100,0,0,100,0.00,40.00,0,-999,0,0.00
2013-10-4,67,57,47,-100,-100,-100,0,0,100,0.00,40.00,0,-999,0,0.00
2013-10-5,62,59,57,-100,-100,-100,0,0,100,0.00,40.00,0,-999,0,0.00
2013-10-6,59,52,49,-100,-100,-100,0,0,100,0.00,40.00,0,-999,0,0.19
2013-10-7,71,57,50,-100,-100,-100,0,0,100,0.00,40.00,0,-999,0,0.61
2013-10-8,60,53,43,-100,-100,-100,0,0,100,0.00,40.00,0,-999,0,0.41
2013-10-9,59,47,36,-100,-100,-100,0,0,100,0.00,40.00,0,-999,0,0.01
2013-10-10,61,49,39,-100,-100,-100,0,0,100,0.00,40.00,0,-999,0,0.00
2013-10-11,67,53,45,-100,-100,-100,0,0,100,0.00,40.00,0,-999,0,0.00
2013-10-12,55,51,45,-100,-100,-100,0,0,100,0.00,40.00,0,-999,0,0.00
2013-10-13,56,49,41,-100,-100,-100,0,0,100,0.00,40.00,0,-999,0,0.00
2013-10-14,64,51,40,-100,-100,-100,0,0,100,0.00,40.00,0,-999,0,0.00
2013-10-15,63,57,50,-100,-100,-100,0,0,100,0.00,40.00,0,-999,0,0.00
2013-10-16,59,54,49,-100,-100,-100,0,0,100,0.00,40.00,0,-999,0,0.00
2013-10-17,69,56,49,-100,-100,-100,0,0,100,0.00,40.00,0,-999,0,0.00
2013-10-18,63,56,52,-100,-100,-100,0,0,100,0.00,40.00,0,-999,0,0.22
2013-10-19,64,53,45,-100,-100,-100,0,0,100,0.00,40.00,0,-999,0,0.03
2013-10-20,59,53,43,-100,-100,-100,0,0,100,0.00,40.00,0,-999,0,0.00
2013-10-21,63,49,38,-100,-100,-100,0,0,100,0.00,40.00,0,-999,0,0.00
2013-10-22,55,51,40,-100,-100,-100,0,0,100,0.00,40.00,0,-999,0,0.07
2013-10-23,53,44,38,-100,-100,-100,0,0,100,0.00,40.00,0,-999,0,0.05
2013-10-24,50,44,36,-100,-100,-100,0,0,100,0.00,40.00,0,-999,0,0.00
2013-10-25,45,40,36,-100,-100,-100,0,0,100,0.00,40.00,0,-999,0,0.00
2013-10-26,49,41,31,-100,-100,-100,0,0,100,0.00,40.00,0,-999,0,0.00
2013-10-27,52,46,35,-100,-100,-100,0,0,100,0.00,40.00,0,-999,0,0.00
2013-10-28,53,43,34,-100,-100,-100,0,0,100,0.00,40.00,0,-999,0,0.00
2013-10-29,46,34,26,-100,-100,-100,0,0,100,0.00,40.00,0,-999,0,0.00
2013-10-30,47,37,30,-100,-100,-100,0,0,100,0.00,40.00,0,-999,0,0.00
2013-10-31,61,41,33,-100,-100,-100,0,0,100,0.00,40.00,0,-999,0,0.22
2013-11-1,68,62,54,-100,-100,-100,0,0,100,0.00,40.00,0,-999,0,0.39
2013-11-2,61,52,43,-100,-100,-100,0,0,100,0.00,40.00,0,-999,0,0.11
2013-11-3,44,38,30,-100,-100,-100,0,0,100,0.00,40.00,0,-999,0,0.11
2013-11-4,40,30,24,-100,-100,-100,0,0,100,0.00,40.00,0,-999,0,0.00
2013-11-5,47,33,25,-100,-100,-100,0,0,100,0.00,40.00,0,-999,0,0.00
2013-11-6,58,46,33,-100,-100,-100,0,0,100,0.00,40.00,0,-999,0,0.00
2013-11-7,58,51,40,-100,-100,-100,0,0,100,0.00,40.00,0,-999,0,0.08
2013-11-8,43,38,31,-100,-100,-100,0,0,100,0.00,40.00,0,-999,0,0.03
2013-11-9,40,37,34,-100,-100,-100,0,0,100,0.00,40.00,0,-999,0,0.00
2013-11-10,42,38,33,-100,-100,-100,0,0,100,0.00,40.00,0,-999,0,0.10
2013-11-11,46,40,36,-100,-100,-100,0,0,100,0.00,40.00,0,-999,0,0.01
2013-11-12,43,32,28,-100,-100,-100,0,0,100,0.00,40.00,0,-999,0,0.00
2013-11-13,31,27,22,-100,-100,-100,0,0,100,0.00,40.00,0,-999,0,0.00
2013-11-14,46,36,30,-100,-100,-100,0,0,100,0.00,40.00,0,-999,0,0.00
2013-11-15,53,42,33,-100,-100,-100,0,0,100,0.00,40.00,0,-999,0,0.00
2013-11-16,53,38,31,-100,-100,-100,0,0,100,0.00,40.00,0,-999,0,0.00
2013-11-17,45,38,30,-100,-100,-100,0,0,100,0.00,40.00,0,-999,0,0.11
2013-11-18,61,53,44,-100,-100,-100,0,0,100,0.00,40.00,0,-999,0,0.57
2013-11-19,46,36,31,-100,-100,-100,0,0,100,0.00,40.00,0,-999,0,0.01
2013-11-20,38,32,27,-100,-100,-100,0,0,100,0.00,40.00,0,-999,0,0.00
2013-11-21,45,32,21,-100,-100,-100,0,0,100,0.00,40.00,0,-999,0,0.00
2013-11-22,42,38,36,-100,-100,-100,0,0,100,0.00,40.00,0,-999,0,0.02
2013-11-23,43,35,27,-100,-100,-100,0,0,100,0.00,40.00,0,-999,0,0.01
2013-11-24,26,20,16,-100,-100,-100,0,0,100,0.00,40.00,0,-999,0,0.01
2013-11-25,29,21,15,-100,-100,-100,0,0,100,0.00,40.00,0,-999,0,0.00
2013-11-26,34,30,27,-100,-100,-100,0,0,100,0.00,40.00,0,-999,0,0.04
2013-11-27,47,39,32,-100,-100,-100,0,0,100,0.00,40.00,0,-999,0,2.07
2013-11-28,35,27,20,-100,-100,-100,0,0,100,0.00,40.00,0,-999,0,0.05
2013-11-29,26,21,14,-100,-100,-100,0,0,100,0.00,40.00,0,-999,0,0.00
2013-11-30,29,20,11,-100,-100,-100,0,0,100,0.00,40.00,0,-999,0,0.00
2013-12-1,35,32,28,-100,-100,-100,0,0,100,0.00,40.00,0,-999,0,0.00
2013-12-2,39,36,33,-100,-100,-100,0,0,100,0.00,40.00,0,-999,0,0.00
2013-12-3,39,35,30,-100,-100,-100,0,0,100,0.00,40.00,0,-999,0,0.00
2013-12-4,39,34,29,-100,-100,-100,0,0,100,0.00,40.00,0,-999,0,0.00
2013-12-5,36,34,28,-100,-100,-100,0,0,100,0.00,40.00,0,-999,0,0.02
2013-12-6,44,40,36,-100,-100,-100,0,0,100,0.00,40.00,0,-999,0,0.05
2013-12-7,35,31,27,-100,-100,-100,0,0,100,0.00,40.00,0,-999,0,0.01
2013-12-8,28,25,21,-100,-100,-100,0,0,100,0.00,40.00,0,-999,0,0.00
2013-12-9,32,25,22,-100,-100,-100,0,0,100,0.00,40.00,0,-999,0,0.10
2013-12-10,34,30,22,-100,-100,-100,0,0,100,0.00,40.00,0,-999,0,0.05
2013-12-11,29,24,20,-100,-100,-100,0,0,100,0.00,40.00,0,-999,0,0.00
2013-12-12,20,15,10,-100,-100,-100,0,0,100,0.00,40.00,0,-999,0,0.00
2013-12-13,24,16,7,-100,-100,-100,0,0,100,0.00,40.00,0,-999,0,0.00
2013-12-14,13,8,3,-100,-100,-100,0,0,100,0.00,40.00,0,-999,0,0.02
2013-12-15,28,19,11,-100,-100,-100,0,0,100,0.00,40.00,0,-999,0,0.30
2013-12-16,23,19,8,-100,-100,-100,0,0,100,0.00,40.00,0,-999,0,0.01
2013-12-17,14,7,-3,-100,-100,-100,0,0,100,0.00,40.00,0,-999,0,0.07
2013-12-18,30,22,14,-100,-100,-100,0,0,100,0.00,40.00,0,-999,0,0.17
2013-12-19,37,32,26,-100,-100,-100,0,0,100,0.00,40.00,0,-999,0,0.00
2013-12-20,38,34,32,-100,-100,-100,0,0,100,0.00,40.00,0,-999,0,0.00
2013-12-21,38,35,33,-100,-100,-100,0,0,100,0.00,40.00,0,-999,0,0.04
2013-12-22,39,33,30,-100,-100,-100,0,0,100,0.00,40.00,0,-999,0,0.23
2013-12-23,35,31,29,-100,-100,-100,0,0,100,0.00,40.00,0,-999,0,0.20
2013-12-24,35,27,18,-100,-100,-100,0,0,100,0.00,40.00,0,-999,0,0.01
2013-12-25,19,12,6,-100,-100,-100,0,0,100,0.00,40.00,0,-999,0,0.00
2013-12-26,24,19,11,-100,-100,-100,0,0,100,0.00,40.00,0,-999,0,0.11
2013-12-27,32,28,22,-100,-100,-100,0,0,100,0.00,40.00,0,-999,0,0.02
2013-12-28,39,32,19,-100,-100,-100,0,0,100,0.00,40.00,0,-999,0,0.00
2013-12-29,35,32,29,-100,-100,-100,0,0,100,0.00,40.00,0,-999,0,0.34
2013-12-30,37,27,9,-100,-100,-100,0,0,100,0.00,40.00,0,-999,0,0.88
2013-12-31,16,9,2,-100,-100,-100,0,0,100,0.00,40.00,0,-999,0,0.01
2014-1-1,20,16,11,-100,-100,-100,0,0,100,0.00,40.00,0,-999,0,0.00
2014-1-2,12,6,-1,-100,-100,-100,0,0,100,0.00,40.00,0,-999,0,0.02